| time (UTC) | temp C | wind direction | speed KPH | gust KPH | rain 1hr cm | rain 24hr cm | rain mn cm | humidity % | barometer mb |
| 20260506113540 | 26 | 88 | 0.0 | 9.7 | 0.00 | 0.00 | 0.00 | 46 | 1012.8 |
| 20260506113041 | 26 | 129 | 1.6 | 11.3 | 0.00 | 0.00 | 0.00 | 44 | 1012.9 |
| 20260506112440 | 26 | 136 | 8.0 | 11.3 | 0.00 | 0.00 | 0.00 | 43 | 1012.9 |
| 20260506112041 | 26 | 261 | 3.2 | 4.8 | 0.00 | 0.00 | 0.00 | 47 | 1012.9 |
| 20260506111340 | 26 | 239 | 0.0 | 8.0 | 0.00 | 0.00 | 0.00 | 46 | 1013.1 |
| 20260506111041 | 26 | 234 | 6.4 | 8.0 | 0.00 | 0.00 | 0.00 | 46 | 1013.2 |
| 20260506110240 | 25 | 177 | 1.6 | 20.9 | 0.00 | 0.00 | 0.00 | 46 | 1013.3 |
| 20260506110041 | 25 | 149 | 1.6 | 20.9 | 0.00 | 0.00 | 0.00 | 47 | 1013.2 |
| 20260506105140 | 25 | 96 | 3.2 | 12.9 | 0.00 | 0.00 | 0.00 | 44 | 1013.4 |
| 20260506105041 | 25 | 111 | 1.6 | 14.5 | 0.00 | 0.00 | 0.00 | 45 | 1013.4 |
| 20260506104040 | 26 | 139 | 6.4 | 8.0 | 0.00 | 0.00 | 0.00 | 44 | 1013.5 |
| 20260506103042 | 26 | 282 | 3.2 | 8.0 | 0.00 | 0.00 | 0.00 | 44 | 1013.6 |
| 20260506102940 | 26 | 125 | 0.0 | 8.0 | 0.00 | 0.00 | 0.00 | 45 | 1013.6 |
| 20260506102042 | 26 | 225 | 4.8 | 11.3 | 0.00 | 0.00 | 0.00 | 46 | 1013.8 |
| 20260506101840 | 25 | 225 | 3.2 | 11.3 | 0.00 | 0.00 | 0.00 | 46 | 1013.8 |
| 20260506101041 | 26 | 84 | 1.6 | 12.9 | 0.00 | 0.00 | 0.00 | 47 | 1013.9 |
| 20260506100740 | 25 | 218 | 1.6 | 12.9 | 0.00 | 0.00 | 0.00 | 46 | 1013.9 |
| 20260506100041 | 25 | 248 | 3.2 | 9.7 | 0.00 | 0.00 | 0.00 | 46 | 1014.1 |
| 20260506095640 | 25 | 224 | 1.6 | 11.3 | 0.00 | 0.00 | 0.00 | 45 | 1014.1 |
| 20260506095041 | 25 | 217 | 6.4 | 11.3 | 0.00 | 0.00 | 0.00 | 47 | 1014.1 |
| 20260506094540 | 25 | 174 | 0.0 | 12.9 | 0.00 | 0.00 | 0.00 | 48 | 1014.2 |
| 20260506094041 | 25 | 196 | 4.8 | 14.5 | 0.00 | 0.00 | 0.00 | 48 | 1014.3 |
| 20260506093440 | 25 | 248 | 1.6 | 12.9 | 0.00 | 0.00 | 0.00 | 48 | 1014.3 |
| 20260506093041 | 25 | 244 | 1.6 | 11.3 | 0.00 | 0.00 | 0.00 | 46 | 1014.3 |
| 20260506092340 | 25 | 193 | 3.2 | 6.4 | 0.00 | 0.00 | 0.00 | 48 | 1014.2 |
| 20260506092042 | 25 | 223 | 4.8 | 8.0 | 0.00 | 0.00 | 0.00 | 46 | 1014.3 |
| 20260506091240 | 25 | 231 | 6.4 | 6.4 | 0.00 | 0.00 | 0.00 | 47 | 1014.4 |
| 20260506091042 | 25 | 277 | 4.8 | 6.4 | 0.00 | 0.00 | 0.00 | 47 | 1014.4 |
| 20260506090140 | 25 | 205 | 3.2 | 11.3 | 0.00 | 0.00 | 0.00 | 50 | 1014.3 |
| 20260506090041 | 25 | 228 | 3.2 | 11.3 | 0.00 | 0.00 | 0.00 | 50 | 1014.4 |
| 20260506085040 | 24 | 215 | 3.2 | 11.3 | 0.00 | 0.00 | 0.00 | 50 | 1014.3 |
| 20260506084042 | 24 | 142 | 1.6 | 9.7 | 0.00 | 0.00 | 0.00 | 50 | 1014.4 |
| 20260506083940 | 24 | 230 | 6.4 | 9.7 | 0.00 | 0.00 | 0.00 | 50 | 1014.4 |
| 20260506083041 | 23 | 214 | 3.2 | 6.4 | 0.00 | 0.00 | 0.00 | 49 | 1014.4 |
| 20260506082840 | 23 | 236 | 1.6 | 4.8 | 0.00 | 0.00 | 0.00 | 50 | 1014.4 |
| 20260506082041 | 23 | 256 | 3.2 | 6.4 | 0.00 | 0.00 | 0.00 | 52 | 1014.4 |
| 20260506081740 | 23 | 197 | 0.0 | 6.4 | 0.00 | 0.00 | 0.00 | 50 | 1014.3 |
| 20260506081041 | 23 | 225 | 1.6 | 6.4 | 0.00 | 0.00 | 0.00 | 51 | 1014.3 |
| 20260506080640 | 23 | 150 | 1.6 | 6.4 | 0.00 | 0.00 | 0.00 | 53 | 1014.3 |
| 20260506073340 | 21 | 156 | 0.0 | 4.8 | 0.00 | 0.00 | 0.00 | 59 | 1014.6 |
| 20260506073042 | 21 | 296 | 1.6 | 6.4 | 0.00 | 0.00 | 0.00 | 61 | 1014.6 |
| 20260506072240 | 20 | 192 | 0.0 | 6.4 | 0.00 | 0.00 | 0.00 | 62 | 1014.6 |
| 20260506072042 | 20 | 248 | 1.6 | 6.4 | 0.00 | 0.00 | 0.00 | 61 | 1014.6 |
| 20260506071140 | 20 | 161 | 0.0 | 4.8 | 0.00 | 0.00 | 0.00 | 63 | 1014.6 |
| 20260506071041 | 20 | 161 | 0.0 | 4.8 | 0.00 | 0.00 | 0.00 | 62 | 1014.6 |
| 20260506062041 | 18 | 150 | 1.6 | 11.3 | 0.00 | 0.00 | 0.00 | 68 | 1014.8 |
| 20260506061640 | 17 | 153 | 4.8 | 6.4 | 0.00 | 0.00 | 0.00 | 69 | 1014.8 |
| 20260506061041 | 17 | 233 | 0.0 | 4.8 | 0.00 | 0.00 | 0.00 | 70 | 1014.9 |
| 20260506060540 | 17 | 171 | 0.0 | 4.8 | 0.00 | 0.00 | 0.00 | 70 | 1014.9 |
| 20260506051041 | 16 | 85 | 1.6 | 6.4 | 0.00 | 0.00 | 0.00 | 69 | 1014.5 |
| 20260506045042 | 16 | 74 | 4.8 | 8.0 | 0.00 | 0.00 | 0.00 | 68 | 1014.6 |
| 20260506044841 | 16 | 92 | 6.4 | 8.0 | 0.00 | 0.00 | 0.00 | 69 | 1014.6 |
| 20260506044042 | 16 | 78 | 6.4 | 8.0 | 0.00 | 0.00 | 0.00 | 69 | 1014.6 |
| 20260506043741 | 16 | 84 | 8.0 | 8.0 | 0.00 | 0.00 | 0.00 | 69 | 1014.6 |
| 20260506043042 | 16 | 85 | 6.4 | 6.4 | 0.00 | 0.00 | 0.00 | 68 | 1014.5 |
| 20260506042641 | 16 | 76 | 3.2 | 4.8 | 0.00 | 0.00 | 0.00 | 67 | 1014.5 |
| 20260506042042 | 16 | 76 | 1.6 | 4.8 | 0.00 | 0.00 | 0.00 | 67 | 1014.4 |
| 20260506041541 | 15 | 76 | 1.6 | 4.8 | 0.00 | 0.00 | 0.00 | 68 | 1014.3 |
| 20260506041042 | 15 | 76 | 4.8 | 6.4 | 0.00 | 0.00 | 0.00 | 68 | 1014.4 |
| 20260506040441 | 15 | 80 | 3.2 | 6.4 | 0.00 | 0.00 | 0.00 | 69 | 1014.4 |
| 20260506040042 | 15 | 76 | 6.4 | 6.4 | 0.00 | 0.00 | 0.00 | 69 | 1014.4 |
| 20260506035341 | 15 | 67 | 0.0 | 6.4 | 0.00 | 0.00 | 0.00 | 69 | 1014.6 |
| 20260506035042 | 15 | 67 | 3.2 | 6.4 | 0.00 | 0.00 | 0.00 | 69 | 1014.5 |
| 20260506034241 | 15 | 88 | 4.8 | 6.4 | 0.00 | 0.00 | 0.00 | 67 | 1014.4 |
| 20260506034043 | 15 | 88 | 3.2 | 6.4 | 0.00 | 0.00 | 0.00 | 67 | 1014.4 |
| 20260506033141 | 15 | 88 | 4.8 | 8.0 | 0.00 | 0.00 | 0.00 | 68 | 1014.4 |
| 20260506033042 | 15 | 89 | 4.8 | 8.0 | 0.00 | 0.00 | 0.00 | 68 | 1014.4 |
| 20260506032040 | 15 | 71 | 6.4 | 6.4 | 0.00 | 0.00 | 0.00 | 68 | 1014.5 |
| 20260506031042 | 15 | 82 | 4.8 | 6.4 | 0.00 | 0.00 | 0.00 | 68 | 1014.4 |
| 20260506030940 | 15 | 80 | 6.4 | 6.4 | 0.00 | 0.00 | 0.00 | 68 | 1014.4 |
| 20260506030042 | 15 | 74 | 6.4 | 6.4 | 0.00 | 0.00 | 0.00 | 68 | 1014.4 |
| 20260506025840 | 15 | 73 | 6.4 | 6.4 | 0.00 | 0.00 | 0.00 | 68 | 1014.4 |
| 20260506025041 | 15 | 70 | 0.0 | 6.4 | 0.00 | 0.00 | 0.00 | 68 | 1014.4 |
| 20260506024740 | 15 | 70 | 3.2 | 6.4 | 0.00 | 0.00 | 0.00 | 68 | 1014.3 |
| 20260506024041 | 15 | 80 | 3.2 | 4.8 | 0.00 | 0.00 | 0.00 | 68 | 1014.3 |
| 20260506023640 | 15 | 70 | 3.2 | 4.8 | 0.00 | 0.00 | 0.00 | 68 | 1014.3 |
| 20260506023041 | 15 | 80 | 3.2 | 4.8 | 0.00 | 0.00 | 0.00 | 68 | 1014.3 |
| 20260506022540 | 15 | 80 | 3.2 | 4.8 | 0.00 | 0.00 | 0.00 | 68 | 1014.2 |
| 20260506022041 | 15 | 80 | 1.6 | 4.8 | 0.00 | 0.00 | 0.00 | 68 | 1014.2 |
| 20260506021440 | 15 | 80 | 1.6 | 4.8 | 0.00 | 0.00 | 0.00 | 68 | 1014.1 |
| 20260506021042 | 15 | 63 | 3.2 | 4.8 | 0.00 | 0.00 | 0.00 | 68 | 1014.2 |
| 20260506020340 | 15 | 85 | 3.2 | 4.8 | 0.00 | 0.00 | 0.00 | 67 | 1014.2 |
| 20260506020042 | 15 | 81 | 3.2 | 4.8 | 0.00 | 0.00 | 0.00 | 68 | 1014.2 |
| 20260506015240 | 14 | 132 | 1.6 | 3.2 | 0.00 | 0.00 | 0.00 | 67 | 1014.1 |
| 20260506015042 | 14 | 132 | 3.2 | 3.2 | 0.00 | 0.00 | 0.00 | 67 | 1014.2 |
| 20260506014140 | 14 | 132 | 0.0 | 3.2 | 0.00 | 0.00 | 0.00 | 68 | 1014.1 |
| 20260506014042 | 14 | 132 | 0.0 | 3.2 | 0.00 | 0.00 | 0.00 | 68 | 1014.2 |
| 20260506013052 | 14 | 132 | 0.0 | 3.2 | 0.00 | 0.00 | 0.00 | 68 | 1014.1 |
| 20260506012039 | 14 | 132 | 3.2 | 3.2 | 0.00 | 0.00 | 0.00 | 69 | 1014.0 |
| 20260506011041 | 15 | 132 | 1.6 | 3.2 | 0.00 | 0.00 | 0.00 | 66 | 1013.9 |
| 20260506010939 | 15 | 132 | 0.0 | 3.2 | 0.00 | 0.00 | 0.00 | 66 | 1013.8 |
| 20260506010040 | 15 | 235 | 1.6 | 4.8 | 0.00 | 0.00 | 0.00 | 66 | 1013.9 |
| 20260506005839 | 15 | 235 | 0.0 | 4.8 | 0.00 | 0.00 | 0.00 | 66 | 1013.8 |
| 20260506005040 | 15 | 227 | 3.2 | 4.8 | 0.00 | 0.00 | 0.00 | 66 | 1013.7 |
| 20260506004739 | 15 | 227 | 3.2 | 4.8 | 0.00 | 0.00 | 0.00 | 66 | 1013.9 |
| 20260506004040 | 15 | 239 | 3.2 | 4.8 | 0.00 | 0.00 | 0.00 | 67 | 1013.7 |
| 20260506003639 | 15 | 217 | 3.2 | 4.8 | 0.00 | 0.00 | 0.00 | 66 | 1013.7 |
| 20260506003040 | 15 | 164 | 0.0 | 8.0 | 0.00 | 0.00 | 0.00 | 66 | 1013.8 |
| 20260506002539 | 15 | 159 | 3.2 | 8.0 | 0.00 | 0.00 | 0.00 | 67 | 1013.7 |
| 20260506002040 | 15 | 140 | 3.2 | 6.4 | 0.00 | 0.00 | 0.00 | 67 | 1013.7 |
| 20260506001439 | 15 | 138 | 4.8 | 4.8 | 0.00 | 0.00 | 0.00 | 68 | 1013.7 |
| 20260506001040 | 15 | 149 | 0.0 | 4.8 | 0.00 | 0.00 | 0.00 | 67 | 1013.7 |
| 20260506000339 | 16 | 136 | 1.6 | 3.2 | 0.00 | 0.00 | 0.00 | 67 | 1013.7 |
| 20260506000040 | 16 | 148 | 0.0 | 3.2 | 0.00 | 0.00 | 0.00 | 67 | 1013.7 |
| 20260505235239 | 16 | 199 | 0.0 | 1.6 | 0.00 | 0.00 | 0.00 | 66 | 1013.7 |
| 20260505235043 | 16 | 198 | 0.0 | 1.6 | 0.00 | 0.00 | 0.00 | 66 | 1013.7 |
| 20260505234139 | 16 | 244 | 0.0 | 1.6 | 0.00 | 0.00 | 0.00 | 66 | 1013.7 |
| 20260505234040 | 16 | 244 | 0.0 | 1.6 | 0.00 | 0.00 | 0.00 | 66 | 1013.6 |
| 20260505233039 | 16 | 244 | 0.0 | 0.0 | 0.00 | 0.00 | 0.00 | 66 | 1013.7 |
| 20260505232044 | 16 | 244 | 0.0 | 0.0 | 0.00 | 0.00 | 0.00 | 66 | 1013.7 |
| 20260505231939 | 16 | 244 | 0.0 | 1.6 | 0.00 | 0.00 | 0.00 | 66 | 1013.7 |
| 20260505231040 | 16 | 240 | 1.6 | 3.2 | 0.00 | 0.00 | 0.00 | 65 | 1013.6 |
| 20260505230839 | 16 | 257 | 0.0 | 3.2 | 0.00 | 0.00 | 0.00 | 65 | 1013.7 |
| 20260505230040 | 16 | 257 | 0.0 | 3.2 | 0.00 | 0.00 | 0.00 | 64 | 1013.8 |
| 20260505225740 | 16 | 257 | 1.6 | 3.2 | 0.00 | 0.00 | 0.00 | 64 | 1013.7 |
| 20260505225041 | 17 | 355 | 0.0 | 8.0 | 0.00 | 0.00 | 0.00 | 64 | 1013.9 |
| 20260505224640 | 17 | 355 | 0.0 | 8.0 | 0.00 | 0.00 | 0.00 | 63 | 1013.8 |
| 20260505224041 | 17 | 355 | 3.2 | 9.7 | 0.00 | 0.00 | 0.00 | 63 | 1013.9 |
| 20260505223540 | 17 | 9 | 3.2 | 9.7 | 0.00 | 0.00 | 0.00 | 63 | 1013.9 |
| 20260505223042 | 17 | 345 | 4.8 | 8.0 | 0.00 | 0.00 | 0.00 | 63 | 1013.9 |
| 20260505222440 | 17 | 5 | 1.6 | 6.4 | 0.00 | 0.00 | 0.00 | 63 | 1013.9 |
| 20260505222042 | 17 | 5 | 3.2 | 8.0 | 0.00 | 0.00 | 0.00 | 62 | 1014.0 |
| 20260505221340 | 17 | 349 | 3.2 | 16.1 | 0.00 | 0.00 | 0.00 | 63 | 1013.9 |
| 20260505221041 | 17 | 5 | 3.2 | 16.1 | 0.00 | 0.00 | 0.00 | 63 | 1014.0 |
| 20260505220240 | 16 | 341 | 8.0 | 12.9 | 0.00 | 0.00 | 0.00 | 63 | 1014.0 |
| 20260505220042 | 16 | 355 | 3.2 | 9.7 | 0.00 | 0.00 | 0.00 | 63 | 1013.9 |
| 20260505215140 | 16 | 360 | 1.6 | 8.0 | 0.00 | 0.00 | 0.00 | 63 | 1014.0 |
| 20260505215041 | 16 | 355 | 4.8 | 8.0 | 0.00 | 0.00 | 0.00 | 62 | 1014.0 |
| 20260505214040 | 17 | 10 | 0.0 | 3.2 | 0.00 | 0.00 | 0.00 | 61 | 1014.0 |
| 20260505213041 | 17 | 313 | 0.0 | 3.2 | 0.00 | 0.00 | 0.00 | 58 | 1014.0 |
| 20260505212940 | 17 | 313 | 0.0 | 3.2 | 0.00 | 0.00 | 0.00 | 58 | 1014.0 |
| 20260505212041 | 17 | 291 | 1.6 | 11.3 | 0.00 | 0.00 | 0.00 | 56 | 1014.1 |
| 20260505211840 | 17 | 292 | 0.0 | 11.3 | 0.00 | 0.00 | 0.00 | 55 | 1014.1 |
| 20260505211041 | 18 | 275 | 4.8 | 6.4 | 0.00 | 0.00 | 0.00 | 55 | 1014.0 |
| 20260505210740 | 18 | 312 | 1.6 | 6.4 | 0.00 | 0.00 | 0.00 | 54 | 1013.9 |
| 20260505210041 | 18 | 298 | 4.8 | 14.5 | 0.00 | 0.00 | 0.00 | 53 | 1014.0 |
| 20260505205640 | 18 | 269 | 3.2 | 14.5 | 0.00 | 0.00 | 0.00 | 53 | 1014.0 |
| 20260505205041 | 18 | 286 | 4.8 | 14.5 | 0.00 | 0.00 | 0.00 | 52 | 1013.9 |
| 20260505204539 | 18 | 273 | 4.8 | 14.5 | 0.00 | 0.00 | 0.00 | 51 | 1013.8 |
| 20260505204041 | 18 | 277 | 3.2 | 16.1 | 0.00 | 0.00 | 0.00 | 50 | 1013.7 |
| 20260505203439 | 19 | 297 | 6.4 | 16.1 | 0.00 | 0.00 | 0.00 | 49 | 1013.6 |
| 20260505203041 | 19 | 263 | 6.4 | 14.5 | 0.00 | 0.00 | 0.00 | 49 | 1013.5 |
| 20260505202339 | 19 | 316 | 8.0 | 12.9 | 0.00 | 0.00 | 0.00 | 49 | 1013.3 |
| 20260505202041 | 19 | 267 | 6.4 | 14.5 | 0.00 | 0.00 | 0.00 | 48 | 1013.3 |
| 20260505201239 | 19 | 284 | 14.5 | 14.5 | 0.00 | 0.00 | 0.00 | 49 | 1013.2 |
| 20260505201041 | 19 | 309 | 3.2 | 4.8 | 0.00 | 0.00 | 0.00 | 48 | 1013.2 |
| 20260505200139 | 18 | 61 | 0.0 | 11.3 | 0.00 | 0.00 | 0.00 | 50 | 1013.1 |
| 20260505200040 | 18 | 331 | 0.0 | 11.3 | 0.00 | 0.00 | 0.00 | 50 | 1013.0 |
| 20260505195039 | 18 | 242 | 0.0 | 8.0 | 0.00 | 0.00 | 0.00 | 53 | 1012.9 |
| 20260505194041 | 19 | 277 | 0.0 | 14.5 | 0.00 | 0.00 | 0.00 | 51 | 1013.0 |
| 20260505193939 | 19 | 265 | 3.2 | 14.5 | 0.00 | 0.00 | 0.00 | 51 | 1012.9 |
| 20260505193041 | 21 | 269 | 9.7 | 11.3 | 0.00 | 0.00 | 0.00 | 47 | 1012.7 |
| 20260505192839 | 21 | 269 | 1.6 | 6.4 | 0.00 | 0.00 | 0.00 | 44 | 1012.6 |
| 20260505192041 | 21 | 249 | 1.6 | 3.2 | 0.00 | 0.00 | 0.00 | 43 | 1012.4 |
| 20260505191739 | 21 | 252 | 1.6 | 3.2 | 0.00 | 0.00 | 0.00 | 44 | 1012.5 |
| 20260505191040 | 22 | 14 | 0.0 | 3.2 | 0.00 | 0.00 | 0.00 | 38 | 1012.2 |
| 20260505190639 | 22 | 14 | 0.0 | 3.2 | 0.00 | 0.00 | 0.00 | 38 | 1012.1 |
| 20260505190041 | 22 | 14 | 1.6 | 6.4 | 0.00 | 0.00 | 0.00 | 39 | 1012.1 |
| 20260505185539 | 22 | 9 | 3.2 | 6.4 | 0.00 | 0.00 | 0.00 | 39 | 1012.0 |
| 20260505185047 | 22 | 23 | 0.0 | 3.2 | 0.00 | 0.00 | 0.00 | 39 | 1012.0 |
| 20260505184439 | 22 | 66 | 0.0 | 1.6 | 0.00 | 0.00 | 0.00 | 39 | 1011.9 |
| 20260505184041 | 22 | 66 | 0.0 | 1.6 | 0.00 | 0.00 | 0.00 | 40 | 1011.9 |
| 20260505183339 | 22 | 66 | 1.6 | 4.8 | 0.00 | 0.00 | 0.00 | 40 | 1011.9 |
| 20260505183041 | 22 | 66 | 1.6 | 6.4 | 0.00 | 0.00 | 0.00 | 41 | 1011.8 |
| 20260505182239 | 22 | 70 | 4.8 | 6.4 | 0.00 | 0.00 | 0.00 | 41 | 1011.8 |
| 20260505182040 | 22 | 61 | 4.8 | 8.0 | 0.00 | 0.00 | 0.00 | 41 | 1011.7 |
| 20260505181139 | 22 | 76 | 6.4 | 8.0 | 0.00 | 0.00 | 0.00 | 41 | 1011.7 |
| 20260505181041 | 22 | 71 | 6.4 | 8.0 | 0.00 | 0.00 | 0.00 | 40 | 1011.7 |
| 20260505180039 | 22 | 65 | 3.2 | 6.4 | 0.00 | 0.00 | 0.00 | 41 | 1011.7 |
| 20260505175042 | 23 | 57 | 6.4 | 6.4 | 0.00 | 0.00 | 0.00 | 41 | 1011.7 |
| 20260505174939 | 23 | 68 | 6.4 | 6.4 | 0.00 | 0.00 | 0.00 | 41 | 1011.5 |
| 20260505174040 | 23 | 65 | 4.8 | 8.0 | 0.00 | 0.00 | 0.00 | 41 | 1011.4 |
| 20260505173839 | 23 | 66 | 3.2 | 8.0 | 0.00 | 0.00 | 0.00 | 41 | 1011.5 |
| 20260505173040 | 23 | 65 | 4.8 | 8.0 | 0.00 | 0.00 | 0.00 | 41 | 1011.4 |
| 20260505172739 | 23 | 63 | 4.8 | 8.0 | 0.00 | 0.00 | 0.00 | 42 | 1011.4 |
| 20260505172040 | 23 | 82 | 4.8 | 8.0 | 0.00 | 0.00 | 0.00 | 42 | 1011.3 |
| 20260505171639 | 23 | 76 | 4.8 | 9.7 | 0.00 | 0.00 | 0.00 | 42 | 1011.3 |
| 20260505171041 | 23 | 88 | 3.2 | 9.7 | 0.00 | 0.00 | 0.00 | 42 | 1011.3 |
| 20260505170539 | 23 | 69 | 8.0 | 11.3 | 0.00 | 0.00 | 0.00 | 42 | 1011.2 |
| 20260505170041 | 23 | 82 | 6.4 | 11.3 | 0.00 | 0.00 | 0.00 | 42 | 1011.3 |
| 20260505165439 | 23 | 73 | 6.4 | 9.7 | 0.00 | 0.00 | 0.00 | 42 | 1011.2 |
| 20260505165041 | 23 | 80 | 4.8 | 11.3 | 0.00 | 0.00 | 0.00 | 41 | 1011.2 |
| 20260505164339 | 24 | 89 | 3.2 | 9.7 | 0.00 | 0.00 | 0.00 | 40 | 1011.4 |
| 20260505164040 | 24 | 92 | 4.8 | 9.7 | 0.00 | 0.00 | 0.00 | 40 | 1011.4 |
| 20260505163239 | 24 | 75 | 4.8 | 6.4 | 0.00 | 0.00 | 0.00 | 40 | 1011.4 |
| 20260505163040 | 24 | 65 | 3.2 | 6.4 | 0.00 | 0.00 | 0.00 | 40 | 1011.4 |
| 20260505162139 | 25 | 67 | 3.2 | 4.8 | 0.00 | 0.00 | 0.00 | 40 | 1011.5 |
| 20260505162040 | 25 | 69 | 3.2 | 4.8 | 0.00 | 0.00 | 0.00 | 40 | 1011.5 |
| 20260505161039 | 25 | 83 | 1.6 | 4.8 | 0.00 | 0.00 | 0.00 | 37 | 1011.5 |
| 20260505153040 | 26 | 81 | 6.4 | 11.3 | 0.00 | 0.00 | 0.00 | 36 | 1012.0 |
| 20260505152639 | 26 | 139 | 8.0 | 11.3 | 0.00 | 0.00 | 0.00 | 35 | 1012.0 |
| 20260505152040 | 26 | 168 | 0.0 | 12.9 | 0.00 | 0.00 | 0.00 | 36 | 1012.0 |
| 20260505151539 | 26 | 113 | 3.2 | 12.9 | 0.00 | 0.00 | 0.00 | 33 | 1012.0 |
| 20260505151040 | 26 | 98 | 9.7 | 12.9 | 0.00 | 0.00 | 0.00 | 35 | 1012.0 |
| 20260505150439 | 26 | 85 | 11.3 | 12.9 | 0.00 | 0.00 | 0.00 | 35 | 1012.1 |
| 20260505125041 | 27 | 121 | 1.6 | 6.4 | 0.00 | 0.00 | 0.00 | 36 | 1013.7 |
| 20260505124140 | 27 | 219 | 1.6 | 6.4 | 0.00 | 0.00 | 0.00 | 33 | 1013.8 |
| 20260505124041 | 27 | 160 | 6.4 | 6.4 | 0.00 | 0.00 | 0.00 | 33 | 1013.9 |
| 20260505123040 | 27 | 257 | 1.6 | 6.4 | 0.00 | 0.00 | 0.00 | 36 | 1014.1 |
| 20260505122041 | 27 | 257 | 4.8 | 11.3 | 0.00 | 0.00 | 0.00 | 39 | 1014.3 |
| 20260505121940 | 27 | 257 | 4.8 | 8.0 | 0.00 | 0.00 | 0.00 | 37 | 1014.3 |
| 20260505121041 | 28 | 238 | 0.0 | 6.4 | 0.00 | 0.00 | 0.00 | 31 | 1014.4 |
| 20260505120840 | 28 | 238 | 1.6 | 6.4 | 0.00 | 0.00 | 0.00 | 32 | 1014.4 |
| 20260505120041 | 28 | 217 | 0.0 | 8.0 | 0.00 | 0.00 | 0.00 | 33 | 1014.4 |
| 20260505115740 | 28 | 284 | 3.2 | 11.3 | 0.00 | 0.00 | 0.00 | 35 | 1014.4 |
| 20260505115041 | 28 | 272 | 6.4 | 11.3 | 0.00 | 0.00 | 0.00 | 33 | 1014.5 |
| 20260505114640 | 27 | 256 | 0.0 | 8.0 | 0.00 | 0.00 | 0.00 | 34 | 1014.6 |
| 20260505114041 | 27 | 208 | 1.6 | 8.0 | 0.00 | 0.00 | 0.00 | 37 | 1014.5 |